[[{"header":{"parameterUnit":"m.s-1","parameterCategory":1,"la1":30.2991,"la2":30.254,"lo1":-89.0895,"lo2":-89.0444,"dy":0.0017,"dx":0.0017,"nx":28,"ny":28,"refTime":"2025-08-21T09:00:00:Z","depth":0,"parameterNumber":2,"parameterNumberName":"U-component_of_WINDS"},"data":[0,0,0,0,0,0,0,0,0,0,0,0,0,0,0,0,0,0,0,0,0,0,0,0,0,0,0,0,0,0,0,0,0,0,0,0,0,0,0,0,0,0,0,0,0,0,0,0,0,0,0,0,0,0,0,0,0,0,0.1632,0.1633,0,0.1709,0.171,0.1711,0.176,0.1761,0.1761,0.1761,0.1838,0.184,0.1842,0,0,0,0,0,0,0,0,0,0,0,0,0,0.1526,0.1528,0.1632,0.1633,0.1634,0.1709,0.171,0.1711,0.176,0.1761,0.1761,0.1761,0.1838,0.184,0.1842,0,0,0,0,0,0,0,0,0,0,0,0,0,0.1584,0.1528,0.1632,0.1668,0.1672,0.1709,0.171,0.1711,0.176,0.1761,0.1761,0.1761,0.1837,0.184,0.1842,0.185,0,0,0.185,0.1852,0,0,0,0,0,0,0,0,0.1581,0.1588,0.1661,0.1665,0.167,0.1726,0.1701,0.1758,0.176,0.1726,0.1761,0.1762,0.18,0.1806,0.1819,0.1853,0.1856,0.1851,0.1852,0.1853,0.1854,0,0,0,0,0,0,0,0.1577,0.1585,0.1663,0.1662,0.1668,0.1679,0.1688,0.1712,0.176,0.1729,0.1733,0.1742,0.1803,0.1817,0.1822,0.1858,0.1851,0.1853,0.1855,0.1856,0.19,0.19,0,0,0,0,0,0,0.1568,0.1582,0.166,0.1665,0.1626,0.1681,0.1691,0.1707,0.176,0.1768,0.1741,0.1744,0.1812,0.1818,0.1825,0.1836,0.1853,0.1856,0.1857,0.1901,0.19,0.19,0,0,0,0,0,0,0.1565,0.1574,0.1657,0.1624,0.1636,0.1682,0.17,0.1708,0.1723,0.1769,0.1777,0.1747,0.1813,0.1821,0.1843,0.1839,0.1857,0.186,0.1901,0.19,0.19,0.1859,0,0,0,0,0,0,0.1562,0.1573,0.1577,0.1624,0.1637,0.1674,0.17,0.171,0.1727,0.1731,0.1776,0.1784,0.1814,0.1839,0.1845,0.1843,0.1862,0.1902,0.1901,0.19,0.1861,0.1857,0.1854,0,0,0,0,0,0.1558,0.1562,0.1576,0.1586,0.1643,0.1674,0.1682,0.1716,0.1727,0.173,0.176,0.1783,0.1839,0.184,0.1849,0.1847,0.1902,0.1901,0.19,0.1862,0.1858,0.1854,0,0,0,0,0,0,0.1512,0.1569,0.1586,0.1605,0.1635,0.1683,0.1688,0.171,0.1737,0.1739,0.178,0.179,0.1807,0.183,0.1831,0.1856,0.1873,0.1874,0.1841,0.1837,0.1834,0.1828,0.1864,0,0,0,0,0,0.1504,0.1526,0.1574,0.1586,0.16,0.1641,0.1656,0.168,0.1712,0.1725,0.1756,0.1785,0.181,0.1825,0.185,0.1864,0.1874,0.1867,0.1863,0.186,0.186,0.1869,0.1866,0.1897,0.1897,0.1897,0,0,0.1488,0.1522,0.1533,0.1578,0.1604,0.1624,0.1652,0.1672,0.1687,0.1728,0.175,0.1774,0.181,0.1828,0.1837,0.1847,0.1854,0.1859,0.1856,0.1858,0.1867,0.1864,0.1862,0.1896,0.1896,0.1896,0,0,0.147,0.1498,0.1511,0.1536,0.1575,0.1602,0.1605,0.165,0.1667,0.1691,0.1721,0.174,0.1781,0.1805,0.1822,0.1812,0.1834,0.1819,0.18,0.1808,0.1805,0.1803,0.1799,0.1797,0.1819,0.1819,0.1819,0,0.1445,0.1477,0.1515,0.1533,0.1552,0.159,0.1603,0.1625,0.167,0.1681,0.1691,0.1743,0.177,0.1794,0.1791,0.1804,0.1808,0.1814,0.1803,0.1801,0.18,0.1796,0.1794,0.1817,0.1817,0.1817,0.1817,0,0.1444,0.1466,0.1472,0.1515,0.1534,0.155,0.1589,0.1604,0.1626,0.1652,0.1675,0.1708,0.174,0.1748,0.1769,0.1774,0.1779,0.1795,0.1813,0.1794,0.1791,0.179,0.1814,0.1814,0.1815,0.1815,0,0,0.1399,0.1461,0.1463,0.1482,0.1528,0.1545,0.1562,0.1594,0.1605,0.1635,0.1649,0.1683,0.1699,0.1718,0.1743,0.175,0.1739,0.1766,0.1767,0.1759,0.1745,0.1732,0.1729,0.1753,0.1753,0.1753,0.1742,0,0.1386,0.1419,0.1453,0.1474,0.1495,0.1531,0.1546,0.1574,0.1599,0.162,0.1647,0.167,0.1689,0.1701,0.1709,0.1738,0.1736,0.174,0.1767,0.1767,0.1756,0.1728,0.1714,0.1702,0.1741,0.1741,0.1741,0,0.1376,0.1404,0.1427,0.147,0.148,0.1492,0.1524,0.1543,0.1576,0.1594,0.1616,0.1642,0.1661,0.1676,0.1702,0.1704,0.1717,0.1733,0.1733,0.1736,0.1752,0.173,0.1699,0.1696,0.1739,0.1739,0.174,0,0.1339,0.1382,0.1402,0.1417,0.1468,0.1476,0.1497,0.1531,0.1548,0.1575,0.1586,0.1615,0.1631,0.1652,0.1685,0.1693,0.1707,0.1726,0.1722,0.1721,0.1722,0.1722,0.1692,0.1732,0.1732,0.1732,0.1732,0,0.132,0.1333,0.1386,0.1397,0.1412,0.1451,0.1464,0.1489,0.1518,0.1535,0.1568,0.1583,0.1626,0.1645,0.1671,0.1688,0.1695,0.1709,0.1716,0.1706,0.1704,0.1714,0.1716,0.1731,0.1732,0.1732,0.1732,0,0.1281,0.1317,0.1341,0.1387,0.1399,0.1408,0.1447,0.1459,0.1486,0.1507,0.1514,0.1555,0.158,0.1615,0.165,0.1668,0.1681,0.1692,0.1669,0.1673,0.1667,0.1666,0.1642,0.1641,0.1682,0.1681,0.1681,0,0.1267,0.1277,0.1325,0.1339,0.1359,0.1381,0.1398,0.1437,0.1453,0.1492,0.1499,0.1526,0.155,0.1588,0.1621,0.1648,0.1659,0.1649,0.1663,0.1653,0.1658,0.1656,0.1657,0.1645,0.1644,0.1644,0.1643,0,0.1237,0.1254,0.1278,0.1309,0.1328,0.1354,0.1381,0.139,0.1434,0.1451,0.1477,0.1495,0.1531,0.1557,0.1589,0.161,0.1633,0.1639,0.1639,0.1628,0.1615,0.1621,0.1659,0.1639,0.1639,0.164,0.164,0.164,0.1209,0.122,0.1255,0.1281,0.1305,0.133,0.1343,0.1372,0.1395,0.1427,0.1449,0.1473,0.1505,0.155,0.157,0.1589,0.1599,0.16,0.16,0.1599,0.1595,0.1612,0.1595,0.1595,0.1596,0.1596,0.1596,0,0.118,0.1205,0.1228,0.1265,0.1285,0.1306,0.1337,0.1352,0.1373,0.1402,0.1425,0.1454,0.148,0.1515,0.1543,0.1551,0.1563,0.1557,0.1556,0.1561,0.1585,0.1582,0.1547,0.1547,0.1547,0.1547,0.1547,0.1547,0.1167,0.1186,0.1208,0.1239,0.1264,0.1289,0.1304,0.1326,0.135,0.1381,0.1403,0.1426,0.1457,0.1487,0.1511,0.1521,0.1529,0.152,0.1533,0.1555,0.1559,0.1563,0.156,0.1522,0.1522,0.1507,0.1506,0.1506]},{"header":{"parameterUnit":"m.s-1","parameterCategory":1,"la1":30.2991,"la2":30.254,"lo1":-89.0895,"lo2":-89.0444,"dy":0.0017,"dx":0.0017,"nx":28,"ny":28,"refTime":"2025-08-21T09:00:00:Z","depth":0,"parameterNumber":3,"parameterNumberName":"V-component_of_WINDS"},"data":[0,0,0,0,0,0,0,0,0,0,0,0,0,0,0,0,0,0,0,0,0,0,0,0,0,0,0,0,0,0,0,0,0,0,0,0,0,0,0,0,0,0,0,0,0,0,0,0,0,0,0,0,0,0,0,0,0,0,2.8869,2.887,0,2.8943,2.8944,2.8945,2.9001,2.9002,2.9002,2.9003,2.9073,2.9075,2.9076,0,0,0,0,0,0,0,0,0,0,0,0,0,2.8768,2.8769,2.8869,2.887,2.8871,2.8943,2.8944,2.8945,2.9001,2.9002,2.9002,2.9003,2.9073,2.9075,2.9076,0,0,0,0,0,0,0,0,0,0,0,0,0,2.8824,2.877,2.8869,2.8907,2.8912,2.8943,2.8944,2.8946,2.9001,2.9002,2.9003,2.9003,2.9072,2.9075,2.9077,2.9074,0,0,2.9083,2.9084,0,0,0,0,0,0,0,0,2.8821,2.8827,2.8901,2.8905,2.891,2.8964,2.8935,2.8988,2.9001,2.8967,2.9003,2.9004,2.9036,2.9041,2.9053,2.9077,2.908,2.9083,2.9084,2.9085,2.9086,0,0,0,0,0,0,0,2.8817,2.8824,2.8898,2.8902,2.8907,2.8919,2.8928,2.8945,2.8996,2.897,2.8974,2.8983,2.9039,2.9051,2.9055,2.9081,2.9083,2.9085,2.9086,2.9087,2.9104,2.9103,0,0,0,0,0,0,2.8808,2.8821,2.8896,2.89,2.8866,2.892,2.893,2.8946,2.8996,2.9005,2.8982,2.8985,2.9047,2.9053,2.9058,2.9057,2.9085,2.9087,2.9088,2.9105,2.9104,2.9103,0,0,0,0,0,0,2.8805,2.8814,2.8893,2.8862,2.8873,2.8921,2.8938,2.8947,2.8959,2.9005,2.9014,2.8986,2.9048,2.9055,2.9069,2.906,2.9088,2.909,2.9106,2.9104,2.9103,2.9055,0,0,0,0,0,0,2.8802,2.8813,2.8814,2.8862,2.8874,2.8905,2.8938,2.8948,2.8964,2.8968,2.9011,2.9019,2.9049,2.9066,2.9071,2.9064,2.9092,2.9107,2.9105,2.9104,2.9058,2.9053,2.9048,0,0,0,0,0,2.8798,2.8796,2.8814,2.8822,2.8877,2.8904,2.8911,2.8948,2.8963,2.8963,2.8992,2.9017,2.906,2.9067,2.9074,2.9066,2.9107,2.9106,2.9104,2.906,2.9054,2.9048,0,0,0,0,0,0,2.8745,2.8804,2.8823,2.8837,2.8865,2.8914,2.8916,2.894,2.8963,2.8967,2.9009,2.9018,2.9028,2.9048,2.9055,2.9065,2.9087,2.9086,2.9051,2.9046,2.9041,2.9035,2.9093,0,0,0,0,0,2.8735,2.8754,2.8803,2.8811,2.8824,2.8867,2.888,2.8906,2.8936,2.8948,2.8978,2.9005,2.9024,2.9036,2.9057,2.9061,2.907,2.9059,2.9054,2.905,2.9049,2.9051,2.9046,2.9097,2.9097,2.9097,0,0,2.8714,2.8749,2.8758,2.8801,2.8826,2.8843,2.8877,2.8893,2.8905,2.895,2.8966,2.8988,2.9021,2.903,2.9035,2.9047,2.9036,2.9047,2.9044,2.9045,2.9048,2.9044,2.9039,2.9096,2.9096,2.9096,0,0,2.8685,2.8714,2.8723,2.8747,2.8784,2.8813,2.8814,2.8859,2.8876,2.8893,2.8926,2.894,2.8973,2.8994,2.9009,2.8986,2.9009,2.8991,2.8965,2.8967,2.8963,2.8959,2.895,2.8946,2.899,2.899,2.8989,0,2.8654,2.8683,2.8723,2.8738,2.8755,2.8797,2.8805,2.8826,2.8867,2.8877,2.889,2.8931,2.8956,2.897,2.8964,2.8975,2.8977,2.8986,2.896,2.8957,2.8955,2.8946,2.8943,2.8987,2.8987,2.8988,2.8988,0,2.8642,2.8661,2.8663,2.8704,2.8721,2.8732,2.8772,2.8783,2.8807,2.8833,2.8848,2.8879,2.8906,2.8911,2.8934,2.8927,2.8933,2.8953,2.8976,2.8947,2.8939,2.8936,2.8983,2.8984,2.8985,2.8986,0,0,2.8583,2.8645,2.8645,2.8663,2.8707,2.8721,2.8732,2.876,2.8769,2.8795,2.8805,2.8831,2.8849,2.8866,2.8891,2.8892,2.887,2.8911,2.8913,2.8902,2.8863,2.8848,2.8844,2.8886,2.8885,2.8885,2.886,0,2.856,2.8586,2.8621,2.8634,2.865,2.869,2.8699,2.8726,2.875,2.8765,2.8791,2.8809,2.8832,2.8842,2.8845,2.8872,2.8863,2.8874,2.8893,2.8893,2.8884,2.884,2.8825,2.88,2.8857,2.8857,2.8857,0,2.8538,2.8563,2.8578,2.8619,2.8627,2.8635,2.8662,2.8678,2.8707,2.8725,2.8743,2.877,2.8782,2.8802,2.8818,2.8825,2.8834,2.8848,2.8848,2.8851,2.8873,2.8841,2.8793,2.8788,2.8853,2.8853,2.8853,0,2.8492,2.8529,2.8543,2.8557,2.8605,2.861,2.863,2.8661,2.8674,2.8697,2.8706,2.8729,2.8742,2.8758,2.879,2.8802,2.8801,2.8825,2.8814,2.8813,2.8812,2.8812,2.8764,2.8819,2.8819,2.8819,2.8819,0,2.8463,2.847,2.8523,2.8531,2.8539,2.8578,2.8585,2.8608,2.8634,2.8646,2.868,2.869,2.8731,2.8745,2.877,2.8778,2.8783,2.8796,2.8802,2.8793,2.8791,2.8799,2.8802,2.8818,2.8818,2.8818,2.8818,0,2.8413,2.8449,2.8466,2.851,2.8521,2.8525,2.8562,2.857,2.8595,2.8609,2.8615,2.8654,2.8672,2.8705,2.8732,2.8748,2.875,2.8762,2.8741,2.8745,2.8732,2.8733,2.8688,2.8683,2.8741,2.874,2.874,0,2.8393,2.8399,2.8444,2.8455,2.8474,2.8491,2.8505,2.8543,2.8556,2.8589,2.8592,2.8613,2.8632,2.8658,2.8687,2.8707,2.8719,2.8702,2.8722,2.8712,2.8718,2.8717,2.8717,2.8697,2.8696,2.8696,2.8695,0,2.8351,2.8368,2.8389,2.8414,2.8431,2.8452,2.8476,2.8482,2.8525,2.8537,2.8556,2.8571,2.8598,2.8617,2.8642,2.866,2.8684,2.8689,2.8687,2.8677,2.8665,2.8671,2.8728,2.8689,2.869,2.869,2.8691,2.8691,2.8315,2.8322,2.8355,2.8375,2.8397,2.8417,2.8427,2.8453,2.8471,2.8497,2.8517,2.8534,2.8561,2.8597,2.8613,2.8625,2.8637,2.8635,2.8635,2.8633,2.8629,2.8663,2.863,2.863,2.863,2.863,2.8631,0,2.8276,2.8298,2.8317,2.8348,2.8364,2.8386,2.8413,2.8424,2.8439,2.8463,2.848,2.8501,2.8519,2.855,2.857,2.8574,2.8586,2.8578,2.8578,2.8582,2.8618,2.8617,2.8569,2.8569,2.8569,2.8569,2.8569,2.8569,2.8257,2.8269,2.829,2.8312,2.8334,2.8352,2.8365,2.8383,2.8402,2.8425,2.8441,2.8461,2.8487,2.8509,2.8526,2.8534,2.854,2.8529,2.854,2.8573,2.8579,2.8585,2.8584,2.853,2.853,2.8503,2.8503,2.8503]}]]